Regional Weather Roundup
Issued by NWS Bismarck, ND

Home | Current Version | Previous Version | Text Only | Print | Product List | Glossary On
Versions: 1 2 3 4 5 6 7 8 9 10 11 12 13 14 15 16 17 18 19 20 21 22 23 24 25 26 27 28 29 30 31 32 33 34 35 36 37 38 39 40 41 42 43 44 45 46 47 48 49 50
000
ASUS43 KBIS 272210
RWRBIS

NWR BROADCAST TEXT
NATIONAL WEATHER SERVICE BISMARCK ND
500 PM CDT THU JUL 27 2017

NOTE: "FAIR" INDICATES FEW OR NO CLOUDS BELOW 12,000 FEET WITH NO
SIGNIFICANT WEATHER AND/OR OBSTRUCTIONS TO VISIBILITY.


CITY           SKY/WX    TMP DP  RH WIND       PRES   REMARKS
WILLISTON      FAIR      73  64  73 E8        30.02F
MINOT          FAIR      85  56  37 SE13      30.06S
MINOT AFB      FAIR      82  57  41 SE9       30.04F
BISMARCK       FAIR      82  58  43 E12       30.07S
DICKINSON      PTSUNNY   79  57  46 CALM      30.04F
GARRISON         N/A     73  64  73 SE14      30.07F
HETTINGER ARPT LGT RAIN  73  56  54 SW20      30.10R
JAMESTOWN      FAIR      81  56  42 SE7       30.09S
HAZEN          FAIR      70  64  83 E9        30.09S
LINTON           N/A    N/A N/A N/A SE9       30.09S
MANDAN         FAIR      81  59  47 E10       30.08S
STANLEY        FAIR      77  63  61 SE10      30.08F
TIOGA          MOCLDY    77  61  57 S9        30.06F
WATFORD CITY   MOCLDY    81  61  50 S12       30.02S
$$

CITY           SKY/WX    TMP DP  RH WIND       PRES   REMARKS
GRAND FORKS    PTSUNNY   84  59  42 CALM      30.05F
GRAND FORKS AF FAIR      83  56  39 CALM      30.07F
DEVILS LAKE    FAIR      81  53  37 SE6       30.10S
FARGO          FAIR      85  59  41 VRB7      30.06F
CAVALIER       FAIR      82  63  51 E6        30.06F
GRAFTON        FAIR      82  61  47 N5        30.08S
GWINNER        CLEAR     81  59  47 CALM      30.09S
LANGDON        FAIR      81  59  47 CALM      30.11S
ROLLA            N/A     75  57  53 SE10G16   30.11F
$$

CITY           SKY/WX    TMP DP  RH WIND       PRES   REMARKS
ABERDEEN       FAIR      83  58  42 VRB6      30.07F
MOBRIDGE       FAIR      84  62  47 S8        30.04F
BUFFALO          N/A     70  56  61 S20       30.03F
RAPID CITY     FAIR      78  55  44 S23       30.07F
GLASGOW        FAIR      92  52  25 MISG      29.93S
SIDNEY         TSTM      78  59  51 SE7       30.04R
WOLF POINT     FAIR      89  55  31 SE14G26   29.97R
GLENDIVE       LGT RAIN  67  63  87 SE13G22   30.06F
MILES CITY     CLOUDY    90  55  30 SE10      29.94S
BAKER          CLOUDY    74  53  48 SE29G38   30.06F
$$

CITY           SKY/WX    TMP DP  RH WIND       PRES   REMARKS
BILLINGS       FAIR      91  46  21 W9        29.97F
GREAT FALLS    FAIR      91  36  14 VRB6      29.98F
REGINA         MOSUNNY   90  54  29 SE15      29.98F
ESTEVAN        PTSUNNY   79  59  50 S2        30.04S
$$




USA.gov is the U.S. government's official web portal to all federal, state and local government web resources and services.